| time (UTC) | temp F | wind direction | speed MPH | gust MPH | rain 1hr in | rain 24hr in | rain mn in | humidity % | barometer mb |
| 20260506004805 | 60 | 307 | 2.0 | 5.0 | 0.00 | 0.00 | 0.00 | 81 | 1013.2 |
| 20260506004305 | 60 | 344 | 1.0 | 5.0 | 0.00 | 0.00 | 0.00 | 80 | 1013.1 |
| 20260506003805 | 59 | 224 | 1.0 | 3.0 | 0.00 | 0.00 | 0.00 | 78 | 1013.2 |
| 20260506002306 | 60 | 242 | 1.0 | 3.0 | 0.00 | 0.00 | 0.00 | 77 | 1013.1 |
| 20260505235804 | 60 | 249 | 0.0 | 1.0 | 0.00 | 0.00 | 0.00 | 78 | 1013.0 |
| 20260505232804 | 60 | 65 | 4.0 | 12.0 | 0.00 | 0.00 | 0.00 | 77 | 1013.1 |
| 20260505231804 | 60 | 60 | 7.0 | 12.0 | 0.00 | 0.00 | 0.00 | 78 | 1013.1 |
| 20260505231304 | 60 | 53 | 7.0 | 13.0 | 0.00 | 0.00 | 0.00 | 78 | 1013.1 |
| 20260505230804 | 60 | 50 | 7.0 | 13.0 | 0.00 | 0.00 | 0.00 | 78 | 1012.9 |
| 20260505230305 | 60 | 61 | 7.0 | 15.0 | 0.00 | 0.00 | 0.00 | 77 | 1013.1 |
| 20260505225805 | 60 | 80 | 12.0 | 18.0 | 0.00 | 0.00 | 0.00 | 77 | 1013.1 |
| 20260505224305 | 60 | 75 | 9.0 | 15.0 | 0.00 | 0.00 | 0.00 | 79 | 1013.1 |
| 20260505222805 | 61 | 131 | 5.0 | 9.0 | 0.00 | 0.00 | 0.00 | 82 | 1013.2 |
| 20260505222306 | 61 | 202 | 5.0 | 10.0 | 0.00 | 0.00 | 0.00 | 82 | 1013.3 |
| 20260505215805 | 60 | 123 | 4.0 | 7.0 | 0.00 | 0.00 | 0.00 | 83 | 1013.1 |
| 20260505213805 | 61 | 102 | 4.0 | 9.0 | 0.00 | 0.00 | 0.00 | 87 | 1013.0 |
| 20260505212805 | 61 | 128 | 7.0 | 7.0 | 0.00 | 0.00 | 0.00 | 88 | 1012.6 |
| 20260505211804 | 61 | 136 | 6.0 | 9.0 | 0.00 | 0.00 | 0.00 | 86 | 1012.7 |
| 20260505211305 | 61 | 90 | 1.0 | 6.0 | 0.00 | 0.00 | 0.00 | 84 | 1012.7 |
| 20260505210804 | 60 | 93 | 1.0 | 12.0 | 0.00 | 0.00 | 0.00 | 84 | 1012.6 |
| 20260505210305 | 60 | 93 | 3.0 | 12.0 | 0.00 | 0.00 | 0.00 | 85 | 1012.5 |
| 20260505205804 | 60 | 110 | 5.0 | 12.0 | 0.00 | 0.00 | 0.00 | 85 | 1012.5 |
| 20260505204305 | 61 | 66 | 1.0 | 6.0 | 0.00 | 0.00 | 0.00 | 88 | 1012.5 |
| 20260505202804 | 61 | 139 | 5.0 | 7.0 | 0.00 | 0.00 | 0.00 | 88 | 1012.4 |
| 20260505201805 | 61 | 101 | 3.0 | 3.0 | 0.00 | 0.00 | 0.00 | 89 | 1012.4 |
| 20260505200805 | 61 | 133 | 5.0 | 12.0 | 0.00 | 0.00 | 0.00 | 87 | 1012.2 |
| 20260505195804 | 61 | 143 | 7.0 | 12.0 | 0.00 | 0.00 | 0.00 | 87 | 1012.1 |
| 20260505195305 | 61 | 60 | 3.0 | 9.0 | 0.00 | 0.00 | 0.00 | 87 | 1012.2 |
| 20260505194805 | 61 | 130 | 2.0 | 7.0 | 0.00 | 0.00 | 0.00 | 88 | 1012.3 |
| 20260505194305 | 61 | 114 | 4.0 | 9.0 | 0.00 | 0.00 | 0.00 | 87 | 1012.2 |
| 20260505193304 | 62 | 146 | 6.0 | 12.0 | 0.00 | 0.00 | 0.00 | 87 | 1012.3 |
| 20260505192805 | 61 | 0 | 0.0 | 0.0 | 0.00 | 0.00 | 0.00 | 96 | 1012.1 |
| 20260505191805 | 61 | 0 | 0.0 | 0.0 | 0.00 | 0.00 | 0.00 | 96 | 1012.0 |
| 20260505191304 | 61 | 0 | 0.0 | 0.0 | 0.00 | 0.00 | 0.00 | 96 | 1012.0 |
| 20260505185804 | 61 | 0 | 0.0 | 0.0 | 0.00 | 0.00 | 0.00 | 96 | 1011.5 |
| 20260505184305 | 61 | 0 | 0.0 | 0.0 | 0.00 | 0.00 | 0.00 | 96 | 1011.9 |
| 20260505183805 | 61 | 0 | 0.0 | 0.0 | 0.00 | 0.00 | 0.00 | 96 | 1012.0 |
| 20260505182306 | 61 | 0 | 0.0 | 0.0 | 0.00 | 0.00 | 0.00 | 96 | 1012.0 |
| 20260505181805 | 61 | 0 | 0.0 | 0.0 | 0.00 | 0.00 | 0.00 | 96 | 1011.5 |
| 20260505180304 | 61 | 0 | 0.0 | 0.0 | 0.00 | 0.00 | 0.00 | 96 | 1012.0 |
| 20260505175305 | 61 | 0 | 0.0 | 0.0 | 0.00 | 0.00 | 0.00 | 96 | 1011.9 |
| 20260505174304 | 61 | 0 | 0.0 | 0.0 | 0.00 | 0.00 | 0.00 | 96 | 1012.3 |
| 20260505173305 | 61 | 0 | 0.0 | 0.0 | 0.00 | 0.00 | 0.00 | 96 | 1012.0 |
| 20260505172306 | 61 | 0 | 0.0 | 0.0 | 0.00 | 0.00 | 0.00 | 96 | 1012.1 |
| 20260505170304 | 61 | 0 | 0.0 | 0.0 | 0.00 | 0.00 | 0.00 | 96 | 1012.0 |
| 20260505165805 | 61 | 0 | 0.0 | 0.0 | 0.00 | 0.00 | 0.00 | 96 | 1012.0 |
| 20260505165306 | 61 | 0 | 0.0 | 0.0 | 0.00 | 0.00 | 0.00 | 96 | 1012.0 |
| 20260505164804 | 61 | 0 | 0.0 | 0.0 | 0.00 | 0.00 | 0.00 | 96 | 1012.1 |
| 20260505164304 | 61 | 0 | 0.0 | 0.0 | 0.00 | 0.00 | 0.00 | 96 | 1012.1 |
| 20260505163304 | 61 | 0 | 0.0 | 0.0 | 0.00 | 0.00 | 0.00 | 96 | 1012.1 |
| 20260505161804 | 61 | 0 | 0.0 | 0.0 | 0.00 | 0.00 | 0.00 | 96 | 1012.2 |
| 20260505160804 | 61 | 0 | 0.0 | 0.0 | 0.00 | 0.00 | 0.00 | 96 | 1012.2 |
| 20260505160305 | 61 | 0 | 0.0 | 0.0 | 0.00 | 0.00 | 0.00 | 96 | 1012.4 |
| 20260505153305 | 61 | 0 | 0.0 | 0.0 | 0.00 | 0.00 | 0.00 | 96 | 1012.7 |
| 20260505152305 | 61 | 0 | 0.0 | 0.0 | 0.00 | 0.00 | 0.00 | 96 | 1012.8 |
| 20260505151805 | 61 | 0 | 0.0 | 0.0 | 0.00 | 0.00 | 0.00 | 96 | 1012.8 |
| 20260505151304 | 61 | 0 | 0.0 | 0.0 | 0.00 | 0.00 | 0.00 | 96 | 1012.8 |
| 20260505150804 | 61 | 0 | 0.0 | 0.0 | 0.00 | 0.00 | 0.00 | 96 | 1012.8 |
| 20260505140306 | 61 | 0 | 0.0 | 0.0 | 0.00 | 0.00 | 0.00 | 96 | 1013.0 |
| 20260505130306 | 61 | 12 | 1.0 | 3.0 | 0.00 | 0.00 | 0.00 | 96 | 1013.0 |
| 20260505121805 | 62 | 224 | 1.0 | 3.0 | 0.00 | 0.00 | 0.00 | 96 | 1012.9 |
| 20260505115305 | 62 | 178 | 1.0 | 3.0 | 0.00 | 0.00 | 0.00 | 95 | 1013.1 |
| 20260505114806 | 62 | 190 | 3.0 | 3.0 | 0.00 | 0.00 | 0.00 | 95 | 1013.1 |
| 20260505114305 | 62 | 204 | 3.0 | 5.0 | 0.00 | 0.00 | 0.00 | 94 | 1013.2 |
| 20260505113806 | 62 | 198 | 2.0 | 3.0 | 0.00 | 0.00 | 0.00 | 94 | 1013.2 |
| 20260505113305 | 63 | 216 | 3.0 | 3.0 | 0.00 | 0.00 | 0.00 | 94 | 1012.8 |
| 20260505112805 | 63 | 211 | 2.0 | 3.0 | 0.00 | 0.00 | 0.00 | 94 | 1013.1 |
| 20260505110805 | 63 | 117 | 2.0 | 3.0 | 0.00 | 0.00 | 0.00 | 95 | 1012.9 |
| 20260505101305 | 62 | 212 | 2.0 | 3.0 | 0.00 | 0.00 | 0.00 | 95 | 1012.4 |
| 20260505100806 | 62 | 134 | 1.0 | 2.0 | 0.00 | 0.00 | 0.00 | 95 | 1012.4 |
| 20260505100305 | 62 | 134 | 1.0 | 3.0 | 0.00 | 0.00 | 0.00 | 94 | 1012.4 |
| 20260505095806 | 62 | 134 | 1.0 | 3.0 | 0.00 | 0.00 | 0.00 | 94 | 1012.4 |
| 20260505095305 | 62 | 134 | 1.0 | 3.0 | 0.00 | 0.00 | 0.00 | 94 | 1012.4 |
| 20260505094806 | 62 | 136 | 1.0 | 3.0 | 0.00 | 0.00 | 0.00 | 95 | 1012.5 |
| 20260505092305 | 61 | 37 | 1.0 | 2.0 | 0.00 | 0.00 | 0.00 | 95 | 1012.1 |
| 20260505091305 | 60 | 33 | 0.0 | 2.0 | 0.00 | 0.00 | 0.00 | 95 | 1012.4 |
| 20260505090805 | 60 | 92 | 0.0 | 1.0 | 0.00 | 0.00 | 0.00 | 95 | 1012.3 |
| 20260505085805 | 60 | 92 | 0.0 | 1.0 | 0.00 | 0.00 | 0.00 | 94 | 1012.1 |
| 20260505084805 | 60 | 92 | 1.0 | 3.0 | 0.00 | 0.00 | 0.00 | 95 | 1012.2 |
| 20260505083805 | 60 | 92 | 0.0 | 2.0 | 0.00 | 0.00 | 0.00 | 94 | 1012.0 |
| 20260505083305 | 60 | 133 | 0.0 | 2.0 | 0.00 | 0.00 | 0.00 | 94 | 1011.9 |
| 20260505082305 | 60 | 134 | 1.0 | 2.0 | 0.00 | 0.00 | 0.00 | 94 | 1012.0 |
| 20260505081805 | 60 | 165 | 0.0 | 1.0 | 0.00 | 0.00 | 0.00 | 94 | 1011.9 |
| 20260505081305 | 60 | 165 | 0.0 | 3.0 | 0.00 | 0.00 | 0.00 | 94 | 1011.9 |
| 20260505080805 | 60 | 202 | 2.0 | 3.0 | 0.00 | 0.00 | 0.00 | 94 | 1011.8 |
| 20260505080305 | 60 | 75 | 0.0 | 3.0 | 0.00 | 0.00 | 0.00 | 94 | 1011.8 |
| 20260505075805 | 60 | 123 | 2.0 | 5.0 | 0.00 | 0.00 | 0.00 | 94 | 1011.8 |
| 20260505074305 | 60 | 20 | 1.0 | 2.0 | 0.00 | 0.00 | 0.00 | 94 | 1011.7 |
| 20260505073805 | 60 | 0 | 0.0 | 2.0 | 0.00 | 0.00 | 0.00 | 94 | 1011.7 |
| 20260505073305 | 60 | 101 | 2.0 | 3.0 | 0.00 | 0.00 | 0.00 | 94 | 1011.7 |
| 20260505072305 | 60 | 90 | 1.0 | 3.0 | 0.00 | 0.00 | 0.00 | 94 | 1011.6 |
| 20260505071805 | 60 | 90 | 1.0 | 3.0 | 0.00 | 0.00 | 0.00 | 94 | 1011.7 |
| 20260505070805 | 60 | 54 | 1.0 | 3.0 | 0.00 | 0.00 | 0.00 | 94 | 1011.8 |
| 20260505070305 | 60 | 17 | 1.0 | 2.0 | 0.00 | 0.00 | 0.00 | 94 | 1011.7 |
| 20260505065805 | 60 | 17 | 1.0 | 3.0 | 0.00 | 0.00 | 0.00 | 94 | 1011.6 |
| 20260505065305 | 60 | 17 | 0.0 | 2.0 | 0.00 | 0.00 | 0.00 | 94 | 1011.7 |
| 20260505064805 | 60 | 17 | 2.0 | 3.0 | 0.00 | 0.00 | 0.00 | 94 | 1011.7 |
| 20260505062305 | 60 | 12 | 0.0 | 0.0 | 0.00 | 0.00 | 0.00 | 94 | 1011.5 |
| 20260505060304 | 60 | 0 | 0.0 | 1.0 | 0.00 | 0.00 | 0.00 | 94 | 1011.6 |
| 20260505055805 | 60 | 0 | 0.0 | 1.0 | 0.00 | 0.00 | 0.00 | 94 | 1011.6 |
| 20260505054305 | 60 | 9 | 0.0 | 1.0 | 0.00 | 0.00 | 0.00 | 94 | 1011.5 |
| 20260505053305 | 60 | 9 | 0.0 | 1.0 | 0.00 | 0.00 | 0.00 | 94 | 1011.5 |
| 20260505051805 | 60 | 5 | 1.0 | 2.0 | 0.00 | 0.00 | 0.00 | 94 | 1011.4 |
| 20260505051305 | 60 | 5 | 0.0 | 0.0 | 0.00 | 0.00 | 0.00 | 94 | 1011.5 |
| 20260505050805 | 60 | 5 | 0.0 | 0.0 | 0.00 | 0.00 | 0.00 | 94 | 1011.7 |
| 20260505041305 | 60 | 329 | 0.0 | 1.0 | 0.00 | 0.00 | 0.00 | 94 | 1012.0 |
| 20260505040304 | 60 | 329 | 1.0 | 2.0 | 0.00 | 0.00 | 0.00 | 94 | 1012.1 |
| 20260505035805 | 60 | 329 | 0.0 | 1.0 | 0.00 | 0.00 | 0.00 | 94 | 1012.1 |
| 20260505035305 | 60 | 329 | 0.0 | 0.0 | 0.00 | 0.00 | 0.00 | 94 | 1012.2 |
| 20260505034305 | 60 | 329 | 0.0 | 0.0 | 0.00 | 0.00 | 0.00 | 94 | 1012.2 |
| 20260505033805 | 60 | 329 | 0.0 | 0.0 | 0.00 | 0.00 | 0.00 | 94 | 1012.2 |
| 20260505031805 | 60 | 329 | 0.0 | 1.0 | 0.00 | 0.00 | 0.00 | 94 | 1012.1 |
| 20260505031305 | 60 | 329 | 0.0 | 0.0 | 0.00 | 0.00 | 0.00 | 94 | 1012.1 |
| 20260505030805 | 60 | 329 | 0.0 | 1.0 | 0.00 | 0.00 | 0.00 | 93 | 1012.0 |
| 20260505030304 | 60 | 329 | 1.0 | 1.0 | 0.00 | 0.00 | 0.00 | 93 | 1012.1 |
| 20260505025805 | 60 | 329 | 1.0 | 2.0 | 0.00 | 0.00 | 0.00 | 93 | 1012.0 |
| 20260505025305 | 60 | 329 | 1.0 | 1.0 | 0.00 | 0.00 | 0.00 | 93 | 1012.0 |
| 20260505024805 | 60 | 327 | 1.0 | 1.0 | 0.00 | 0.00 | 0.00 | 93 | 1012.0 |
| 20260505023806 | 61 | 340 | 0.0 | 0.0 | 0.00 | 0.00 | 0.00 | 93 | 1012.2 |
| 20260505023304 | 61 | 340 | 1.0 | 1.0 | 0.00 | 0.00 | 0.00 | 93 | 1012.2 |
| 20260505022804 | 61 | 340 | 0.0 | 1.0 | 0.00 | 0.00 | 0.00 | 93 | 1012.3 |
| 20260505022305 | 61 | 340 | 1.0 | 1.0 | 0.00 | 0.00 | 0.00 | 93 | 1012.3 |
| 20260505021304 | 61 | 340 | 0.0 | 1.0 | 0.00 | 0.00 | 0.00 | 93 | 1012.5 |
| 20260505020305 | 61 | 340 | 0.0 | 0.0 | 0.00 | 0.00 | 0.00 | 93 | 1012.6 |
| 20260505015806 | 61 | 342 | 0.0 | 0.0 | 0.00 | 0.00 | 0.00 | 93 | 1012.7 |
| 20260505014305 | 61 | 355 | 0.0 | 0.0 | 0.00 | 0.00 | 0.00 | 93 | 1012.9 |
| 20260505013304 | 61 | 16 | 0.0 | 0.0 | 0.00 | 0.00 | 0.00 | 93 | 1012.9 |
| 20260505012805 | 61 | 19 | 0.0 | 0.0 | 0.00 | 0.00 | 0.00 | 93 | 1013.2 |
| 20260505012305 | 61 | 19 | 0.0 | 0.0 | 0.00 | 0.00 | 0.00 | 93 | 1013.1 |
| 20260505011805 | 61 | 19 | 0.0 | 0.0 | 0.00 | 0.00 | 0.00 | 93 | 1013.3 |
| 20260505010305 | 61 | 19 | 1.0 | 2.0 | 0.00 | 0.00 | 0.00 | 93 | 1013.3 |
| 20260505005804 | 61 | 329 | 1.0 | 2.0 | 0.00 | 0.00 | 0.00 | 93 | 1013.3 |